|
|
Asteroid 2012 MX2
(Preview)
Orbital elements:
2012 MX2 Earth MOID = 0.0210 AU
Epoch 2012 Mar. 14.0 TT = JDT 2456000.5 MPC
M 6.75122 (2000.0) P Q
n 1.31550875 Peri. 205.20608 -0.36215783 -0.92781856
a 0.8249106 Node 266.13182 +0.86966448 -0.30181438
e 0.4754610 Incl. 5.14150 +0.33544804 -0.21922773
P 0.75 H 23.2 G 0....
|
Blobrana
|
0
|
|
|
|
|
Asteroid 2012 MW1
(Preview)
Orbital elements:
2012 MW1 Earth MOID = 0.1240 AU
Epoch 2012 Mar. 14.0 TT = JDT 2456000.5 MPC
M 335.71685 (2000.0) P Q
n 0.41108924 Peri. 126.95311 -0.64663136 +0.46225023
a 1.7913425 Node 88.89224 -0.73310493 -0.59639564
e 0.4342460 Incl. 37.36585 +0.21077248 -0.65622936
P 2.40 H 20.7 G...
|
Blobrana
|
0
|
|
|
|
|
Asteroid 2012 MN2
(Preview)
Orbital elements:
2012 MN2 Earth MOID = 0.2082 AU
Epoch 2012 Mar. 14.0 TT = JDT 2456000.5 MPC
M 307.93924 (2000.0) P Q
n 0.31718025 Peri. 254.18862 +0.89257364 +0.44633696
a 2.1294394 Node 79.26606 -0.38474905 +0.82792077
e 0.4331250 Incl. 3.73470 -0.23511799 +0.33960347
P 3.11 H 20.4 G 0...
|
Blobrana
|
0
|
|
|
|
|
Asteroid 2008 CE119
(Preview)
The 20 - 44 metre wide asteroid 2008 CE119 will make a close pass (26.3 lunar distances, 0.0675 AU), travelling at 4.69 km/second, to the Earth-Moon system on the 3rd March, 2012 @ 13:35 UT ±2 days 13:35. See more The Lunar...
|
Blobrana
|
2
|
|
|
|
|
Asteroid (308242) 2005 GO21
(Preview)
The 1400 - 3100 metre wide asteroid 2005 GO21 will make a close pass (17.1 lunar distances, 0.0440 AU), travelling at 13.27 km/second, to the Earth-Moon system on the 21st June, 2012 @ 18:15 UT ±00:01. See more The Lunar Distan...
|
Blobrana
|
1
|
|
|
|
|
Asteroid 2012 MP
(Preview)
Orbital elements:
2012 MP Earth MOID = 0.2011 AU
Epoch 2012 Mar. 14.0 TT = JDT 2456000.5 MPC
M 285.26308 (2000.0) P Q
n 0.64523667 Peri. 21.30551 +0.32770800 +0.91134458
a 1.3263456 Node 268.52060 -0.89884432 +0.21952469
e 0.0859434 Incl. 14.43009 -0.29100920 +0.34822402
P 1.53 H 20.7 G 0...
|
Blobrana
|
0
|
|
|
|
|
Asteroid 2012 LD13
(Preview)
Orbital elements:
2012 LD13 Earth MOID = 0.0692 AU
Epoch 2012 Mar. 14.0 TT = JDT 2456000.5 MPC
M 352.63521 (2000.0) P Q
n 0.26372477 Peri. 17.56934 -0.96552307 -0.25631244
a 2.4082530 Node 147.47035 +0.22752774 -0.91581946
e 0.7163052 Incl. 4.85251 +0.12647659 -0.30915797
P 3.74 H 22.1 G...
|
Blobrana
|
0
|
|
|
|
|
Asteroid 2012 LC13
(Preview)
Orbital elements:
2012 LC13 Earth MOID = 0.2376 AU
Epoch 2012 Mar. 14.0 TT = JDT 2456000.5 MPC
M 317.15137 (2000.0) P Q
n 0.31681242 Peri. 200.65662 +0.42342655 +0.90119975
a 2.1310874 Node 94.49039 -0.81761845 +0.42410752
e 0.4127584 Incl. 5.32156 -0.39014102 +0.08928506
P 3.11 H 21.9 G...
|
Blobrana
|
0
|
|
|
|
|
Asteroid 2005 YN3
(Preview)
Orbital elements:
2005 YN3 Earth MOID = 0.3988 AU
Epoch 2012 Mar. 14.0 TT = JDT 2456000.5 MPC
M 273.57411 (2000.0) P Q
n 0.41829902 Peri. 85.73642 +0.80551642 -0.06237975
a 1.7706993 Node 277.01292 -0.21332732 +0.89724131
e 0.3627998 Incl. 36.42164 +0.55284243 +0.43711188
P 2.36 H 19.4 G...
|
Blobrana
|
0
|
|
|
|
|
Asteroid 2012 LG11
(Preview)
Orbital elements:
2012 LG11 Earth MOID = 0.2001 AU
Epoch 2012 Mar. 14.0 TT = JDT 2456000.5 MPC
M 336.95325 (2000.0) P Q
n 0.35444839 Peri. 352.23116 -0.42277412 +0.70831609
a 1.9774281 Node 251.14672 -0.79602863 -0.58838626
e 0.3873152 Incl. 36.67930 -0.43312870 +0.38998708
P 2.78 H 19....
|
Blobrana
|
0
|
|
|
|
|
Asteroid 2012 LF11
(Preview)
Orbital elements:
2012 LF11 Earth MOID = 0.1116 AU
Epoch 2012 Mar. 14.0 TT = JDT 2456000.5 MPC
M 343.14063 (2000.0) P Q
n 1.15898932 Peri. 263.51287 -0.57074176 -0.80972427
a 0.8976005 Node 222.26370 +0.81048654 -0.52886418
e 0.4851034 Incl. 11.70001 +0.13177793 -0.25426224
P 0.85 H 20....
|
Blobrana
|
0
|
|
|
|
|
Asteroid 2012 LF4
(Preview)
Orbital elements:
2012 LF4 Earth MOID = 0.0351 AU
Epoch 2012 Mar. 14.0 TT = JDT 2456000.5 MPC
M 258.51997 (2000.0) P Q
n 0.68756798 Peri. 72.96398 +0.81877670 +0.56581533
a 1.2713319 Node 252.47581 -0.55787148 +0.74411148
e 0.2609689 Incl. 5.85342 -0.13558806 +0.35517758
P 1.43 H 24.4 G 0...
|
Blobrana
|
1
|
|
|
|
|
Asteroid 2006 CF
(Preview)
Orbital elements:
2006 CF PHA, Earth MOID = 0.0214 AU
Epoch 2012 Mar. 14.0 TT = JDT 2456000.5 MPC
M 308.48604 (2000.0) P Q
n 0.28425456 Peri. 267.62963 +0.93364690 -0.35026444
a 2.2908558 Node 112.86614 +0.35239559 +0.86069312
e 0.6825846 Incl. 4.66605 +0.06419364 +0.36948906
P 3.47 H 19...
|
Blobrana
|
0
|
|
|
|
|
Asteroid 2012 LK11
(Preview)
Orbital elements:
2012 LK11 PHA, Earth MOID = 0.0133 AU
Epoch 2012 Mar. 14.0 TT = JDT 2456000.5 MPC
M 333.32388 (2000.0) P Q
n 0.21485926 Peri. 158.05591 +0.66890946 +0.74223292
a 2.7607897 Node 153.87297 -0.69498439 +0.64384819
e 0.6358970 Incl. 5.29331 -0.26373629 +0.18587576
P 4.59 H...
|
Blobrana
|
0
|
|
|
|
|
Asteroid 2012 LJ11
(Preview)
Orbital elements:
2012 LJ11 Earth MOID = 0.1250 AU
Epoch 2012 Mar. 14.0 TT = JDT 2456000.5 MPC
M 343.58272 (2000.0) P Q
n 0.24051967 Peri. 338.57864 -0.47906391 +0.76513499
a 2.5607606 Node 260.41420 -0.72858470 -0.61994215
e 0.5637916 Incl. 25.86708 -0.48955295 +0.17389704
P 4.10 H 22....
|
Blobrana
|
0
|
|
|